Weather History for Sussex, NJ

Change the Weather History Date:

Friday, November 18, 2011

  Actual Average Record
Temperature  
Mean Temperature 36 °F -  
Max Temperature 45 °F 48 °F 67 °F (1963)
Min Temperature 27 °F 26 °F 13 °F (1980)
Degree Days  
Heating Degree Days 28    
Moisture  
Dew Point 21 °F    
Average Humidity 58    
Maximum Humidity 85    
Minimum Humidity 35    
Precipitation  
Precipitation 0.00 in - - ()
Sea Level Pressure  
Sea Level Pressure 30.32 in    
Wind  
Wind Speed 4 mph (West)    
Max Wind Speed 12 mph    
Max Gust Speed 17 mph    
Visibility 10 miles    
Events      
Averages and records for this station are not official NWS values.
T = Trace of Precipitation, MM = Missing Value Source: NWS Daily Summary

Daily Weather History Graph

Daily Weather History Graph

Search for Another Location

Airport:

Trip Planner

Search our weather history database for the weather conditions in past years. The results will help you decide how hot, cold, wet, or windy it might be!

Date:

Astronomy

Nov. 18, 2011 Rise Set
Actual Time 6:49 AM EST 4:37 PM EST
Civil Twilight 6:19 AM EST 5:06 PM EST
Nautical Twilight 5:46 AM EST 5:40 PM EST
Astronomical Twilight 5:13 AM EST 6:13 PM EST
Moon No Moon Rise 12:26 PM EST (11/18)
Length of Visible Light 10h 47m
Length of Day
9h 47m
Waning Gibbous, 49% of the Moon is Illuminated
Nov 18
Waning Gibbous
Nov 25
New
Dec 2
First Quarter
Dec 10
Full
Dec 17
Last Quarter

Hourly Weather History & Observations

Time (EST) Temp. Windchill Dew Point Humidity Pressure Visibility Wind Dir Wind Speed Gust Speed Precip Events Conditions
12:53 AM 35.1 °F 30.1 °F 24.1 °F 64% 30.06 in 10.0 mi Variable 5.8 mph - N/A   Clear
1:53 AM 35.1 °F 30.1 °F 21.0 °F 57% 30.10 in 10.0 mi WNW 5.8 mph - N/A   Partly Cloudy
2:53 AM 35.1 °F 31.0 °F 21.0 °F 57% 30.14 in 10.0 mi SW 4.6 mph - N/A   Partly Cloudy
3:53 AM 35.1 °F 30.1 °F 19.9 °F 54% 30.17 in 10.0 mi Variable 5.8 mph - N/A   Partly Cloudy
4:53 AM 33.1 °F - 19.9 °F 59% 30.21 in 10.0 mi Calm Calm - N/A   Clear
5:53 AM 33.1 °F - 19.9 °F 59% 30.23 in 10.0 mi Calm Calm - N/A   Clear
6:53 AM 33.1 °F 28.7 °F 19.9 °F 59% 30.28 in 10.0 mi Variable 4.6 mph - N/A   Clear
7:53 AM 34.0 °F - 19.9 °F 56% 30.32 in 10.0 mi Calm Calm - N/A   Clear
8:53 AM 37.0 °F 34.5 °F 19.9 °F 50% 30.35 in 10.0 mi Variable 3.5 mph - N/A   Clear
9:53 AM 39.0 °F 31.8 °F 19.9 °F 46% 30.37 in 10.0 mi West 11.5 mph 17.3 mph N/A   Partly Cloudy
10:53 AM 41.0 °F 36.4 °F 19.9 °F 43% 30.37 in 10.0 mi Variable 6.9 mph - N/A   Clear
11:53 AM 43.0 °F 38.8 °F 19.9 °F 40% 30.36 in 10.0 mi NNW 6.9 mph - N/A   Clear
12:53 PM 44.1 °F 40.8 °F 19.0 °F 37% 30.35 in 10.0 mi NW 5.8 mph - N/A   Clear
1:53 PM 44.1 °F 40.8 °F 18.0 °F 35% 30.35 in 10.0 mi West 5.8 mph - N/A   Clear
2:53 PM 45.0 °F - 19.0 °F 36% 30.35 in 10.0 mi Calm Calm - N/A   Clear
3:53 PM 43.0 °F 40.3 °F 17.1 °F 35% 30.35 in 10.0 mi SW 4.6 mph - N/A   Clear
4:53 PM 39.9 °F - 19.0 °F 43% 30.36 in 10.0 mi Calm Calm - N/A   Clear
5:53 PM 34.0 °F - 21.9 °F 61% 30.39 in 10.0 mi Calm Calm - N/A   Clear
6:53 PM 33.1 °F - 26.1 °F 75% 30.40 in 10.0 mi Calm Calm - N/A   Clear
7:53 PM 28.9 °F - 24.1 °F 82% 30.40 in 10.0 mi Calm Calm - N/A   Clear
8:53 PM 28.9 °F - 25.0 °F 85% 30.42 in 10.0 mi Calm Calm - N/A   Clear
9:53 PM 28.9 °F - 24.1 °F 82% 30.42 in 10.0 mi Calm Calm - N/A   Clear
10:53 PM 28.0 °F 24.2 °F 23.0 °F 81% 30.41 in 10.0 mi SSW 3.5 mph - N/A   Clear
11:53 PM 27.0 °F 23.0 °F 23.0 °F 85% 30.41 in 10.0 mi SW 3.5 mph - N/A   Clear